Year,Month,Day,Hour,Minute,Value (Times are PST for temperature in C)
2013,07,13,00,00,13.20
2013,07,13,00,01,13.20
2013,07,13,00,02,13.20
2013,07,13,00,03,13.10
2013,07,13,00,04,13.10
2013,07,13,00,05,13.10
2013,07,13,00,06,13.10
2013,07,13,00,07,13.00
2013,07,13,00,08,13.00
2013,07,13,00,09,13.00
2013,07,13,00,10,12.90
2013,07,13,00,11,12.90
2013,07,13,00,12,12.90
2013,07,13,00,13,12.90
2013,07,13,00,14,12.90
2013,07,13,00,15,13.00
2013,07,13,00,16,13.00
2013,07,13,00,17,13.00
2013,07,13,00,18,13.00
2013,07,13,00,19,13.00
2013,07,13,00,20,13.10
2013,07,13,00,21,13.10
2013,07,13,00,22,13.00
2013,07,13,00,23,13.10
2013,07,13,00,24,13.00
2013,07,13,00,25,13.00
2013,07,13,00,26,12.90
2013,07,13,00,27,12.90
2013,07,13,00,28,12.90
2013,07,13,00,29,12.90
2013,07,13,00,30,12.90
2013,07,13,00,31,12.90
2013,07,13,00,32,12.80
2013,07,13,00,33,12.80
2013,07,13,00,34,12.80
2013,07,13,00,35,12.80
2013,07,13,00,36,12.80
2013,07,13,00,37,12.80
2013,07,13,00,38,12.70
2013,07,13,00,39,12.70
2013,07,13,00,40,12.70
2013,07,13,00,41,12.70
2013,07,13,00,42,12.70
2013,07,13,00,43,12.70
2013,07,13,00,44,12.70
2013,07,13,00,45,12.70
2013,07,13,00,46,12.60
2013,07,13,00,47,12.60
2013,07,13,00,48,12.60
2013,07,13,00,49,12.60
2013,07,13,00,50,12.60
2013,07,13,00,51,12.50
2013,07,13,00,52,12.50
2013,07,13,00,53,12.50
2013,07,13,00,54,12.50
2013,07,13,00,55,12.50
2013,07,13,00,56,12.50
2013,07,13,00,57,12.60
2013,07,13,00,58,12.60
2013,07,13,00,59,12.60
2013,07,13,01,00,12.60
2013,07,13,01,01,12.60
2013,07,13,01,02,12.60
2013,07,13,01,03,12.70
2013,07,13,01,04,12.60
2013,07,13,01,05,12.60
2013,07,13,01,06,12.60
2013,07,13,01,07,12.60
2013,07,13,01,08,12.60
2013,07,13,01,09,12.60
2013,07,13,01,10,12.60
2013,07,13,01,11,12.70
2013,07,13,01,12,12.60
2013,07,13,01,13,12.60
2013,07,13,01,14,12.60
2013,07,13,01,15,12.50
2013,07,13,01,16,12.50
2013,07,13,01,17,12.50
2013,07,13,01,18,12.40
2013,07,13,01,19,12.40
2013,07,13,01,20,12.40
2013,07,13,01,21,12.30
2013,07,13,01,22,12.30
2013,07,13,01,23,12.40
2013,07,13,01,24,12.40
2013,07,13,01,25,12.40
2013,07,13,01,26,12.40
2013,07,13,01,27,12.40
2013,07,13,01,28,12.40
2013,07,13,01,29,12.40
2013,07,13,01,30,12.40
2013,07,13,01,31,12.30
2013,07,13,01,32,12.30
2013,07,13,01,33,12.30
2013,07,13,01,34,12.30
2013,07,13,01,35,12.30
2013,07,13,01,36,12.30
2013,07,13,01,37,12.30
2013,07,13,01,38,12.30
2013,07,13,01,39,12.30
2013,07,13,01,40,12.30
2013,07,13,01,41,12.30
2013,07,13,01,42,12.30
2013,07,13,01,43,12.20
2013,07,13,01,44,12.20
2013,07,13,01,45,12.10
2013,07,13,01,46,12.10
2013,07,13,01,47,12.10
2013,07,13,01,48,12.10
2013,07,13,01,49,12.00
2013,07,13,01,50,12.00
2013,07,13,01,51,12.00
2013,07,13,01,52,12.00
2013,07,13,01,53,12.00
2013,07,13,01,54,12.10
2013,07,13,01,55,12.10
2013,07,13,01,56,12.10
2013,07,13,01,57,12.10
2013,07,13,01,58,12.10
2013,07,13,01,59,12.20
2013,07,13,02,00,12.20
2013,07,13,02,01,12.20
2013,07,13,02,02,12.10
2013,07,13,02,03,12.10
2013,07,13,02,04,12.10
2013,07,13,02,05,12.10
2013,07,13,02,06,12.10
2013,07,13,02,07,12.10
2013,07,13,02,08,12.10
2013,07,13,02,09,12.10
2013,07,13,02,10,12.10
2013,07,13,02,11,12.10
2013,07,13,02,12,12.10
2013,07,13,02,13,12.10
2013,07,13,02,14,12.10
2013,07,13,02,15,12.10
2013,07,13,02,16,12.10
2013,07,13,02,17,12.10
2013,07,13,02,18,12.10
2013,07,13,02,19,12.10
2013,07,13,02,20,12.00
2013,07,13,02,21,12.00
2013,07,13,02,22,12.10
2013,07,13,02,23,12.10
2013,07,13,02,24,12.00
2013,07,13,02,25,12.00
2013,07,13,02,26,12.10
2013,07,13,02,27,12.10
2013,07,13,02,28,12.10
2013,07,13,02,29,12.10
2013,07,13,02,30,12.10
2013,07,13,02,31,12.10
2013,07,13,02,32,12.10
2013,07,13,02,33,12.10
2013,07,13,02,34,12.10
2013,07,13,02,35,12.00
2013,07,13,02,36,12.00
2013,07,13,02,37,12.00
2013,07,13,02,38,11.90
2013,07,13,02,39,11.90
2013,07,13,02,40,11.90
2013,07,13,02,41,11.90
2013,07,13,02,42,11.80
2013,07,13,02,43,11.80
2013,07,13,02,44,11.80
2013,07,13,02,45,11.80
2013,07,13,02,46,11.80
2013,07,13,02,47,11.70
2013,07,13,02,48,11.70
2013,07,13,02,49,11.70
2013,07,13,02,50,11.70
2013,07,13,02,51,11.70
2013,07,13,02,52,11.60
2013,07,13,02,53,11.60
2013,07,13,02,54,11.60
2013,07,13,02,55,11.60
2013,07,13,02,56,11.60
2013,07,13,02,57,11.60
2013,07,13,02,58,11.60
2013,07,13,02,59,11.60
2013,07,13,03,00,11.60
2013,07,13,03,01,11.60
2013,07,13,03,02,11.50
2013,07,13,03,03,11.50
2013,07,13,03,04,11.50
2013,07,13,03,05,11.60
2013,07,13,03,06,11.60
2013,07,13,03,07,11.60
2013,07,13,03,08,11.50
2013,07,13,03,09,11.50
2013,07,13,03,10,11.50
2013,07,13,03,11,11.50
2013,07,13,03,12,11.50
2013,07,13,03,13,11.50
2013,07,13,03,14,11.50
2013,07,13,03,15,11.50
2013,07,13,03,16,11.50
2013,07,13,03,17,11.50
2013,07,13,03,18,11.50
2013,07,13,03,19,11.50
2013,07,13,03,20,11.50
2013,07,13,03,21,11.50
2013,07,13,03,22,11.50
2013,07,13,03,23,11.50
2013,07,13,03,24,11.50
2013,07,13,03,25,11.50
2013,07,13,03,26,11.50
2013,07,13,03,27,11.40
2013,07,13,03,28,11.40
2013,07,13,03,29,11.40
2013,07,13,03,30,11.40
2013,07,13,03,31,11.40
2013,07,13,03,32,11.40
2013,07,13,03,33,11.40
2013,07,13,03,34,11.40
2013,07,13,03,35,11.40
2013,07,13,03,36,11.40
2013,07,13,03,37,11.40
2013,07,13,03,38,11.30
2013,07,13,03,39,11.30
2013,07,13,03,40,11.30
2013,07,13,03,41,11.30
2013,07,13,03,42,11.30
2013,07,13,03,43,11.20
2013,07,13,03,44,11.30
2013,07,13,03,45,11.20
2013,07,13,03,46,11.20
2013,07,13,03,47,11.20
2013,07,13,03,48,11.20
2013,07,13,03,49,11.20
2013,07,13,03,50,11.20
2013,07,13,03,51,11.20
2013,07,13,03,52,11.20
2013,07,13,03,53,11.20
2013,07,13,03,54,11.20
2013,07,13,03,55,11.20
2013,07,13,03,56,11.20
2013,07,13,03,57,11.20
2013,07,13,03,58,11.20
2013,07,13,03,59,11.20
2013,07,13,04,00,11.20
2013,07,13,04,01,11.20
2013,07,13,04,02,11.10
2013,07,13,04,03,11.10
2013,07,13,04,04,11.10
2013,07,13,04,05,11.10
2013,07,13,04,06,11.20
2013,07,13,04,07,11.10
2013,07,13,04,08,11.10
2013,07,13,04,09,11.10
2013,07,13,04,10,11.10
2013,07,13,04,11,11.10
2013,07,13,04,12,11.10
2013,07,13,04,13,11.10
2013,07,13,04,14,11.10
2013,07,13,04,15,11.00
2013,07,13,04,16,11.00
2013,07,13,04,17,11.00
2013,07,13,04,18,11.00
2013,07,13,04,19,11.00
2013,07,13,04,20,11.10
2013,07,13,04,21,11.00
2013,07,13,04,22,11.00
2013,07,13,04,23,11.00
2013,07,13,04,24,11.00
2013,07,13,04,25,11.00
2013,07,13,04,26,11.00
2013,07,13,04,27,11.00
2013,07,13,04,28,11.00
2013,07,13,04,29,11.00
2013,07,13,04,30,11.00
2013,07,13,04,31,11.00
2013,07,13,04,32,11.00
2013,07,13,04,33,11.00
2013,07,13,04,34,10.90
2013,07,13,04,35,10.90
2013,07,13,04,36,10.90
2013,07,13,04,37,10.90
2013,07,13,04,38,10.90
2013,07,13,04,39,10.90
2013,07,13,04,40,10.90
2013,07,13,04,41,10.80
2013,07,13,04,42,10.80
2013,07,13,04,43,10.80
2013,07,13,04,44,10.80
2013,07,13,04,45,10.80
2013,07,13,04,46,10.80
2013,07,13,04,47,10.80
2013,07,13,04,48,10.80
2013,07,13,04,49,10.80
2013,07,13,04,50,10.80
2013,07,13,04,51,10.80
2013,07,13,04,52,10.70
2013,07,13,04,53,10.70
2013,07,13,04,54,10.70
2013,07,13,04,55,10.70
2013,07,13,04,56,10.70
2013,07,13,04,57,10.70
2013,07,13,04,58,10.70
2013,07,13,04,59,10.60
2013,07,13,05,00,10.60
2013,07,13,05,01,10.60
2013,07,13,05,02,10.60
2013,07,13,05,03,10.60
2013,07,13,05,04,10.60
2013,07,13,05,05,10.60
2013,07,13,05,06,10.60
2013,07,13,05,07,10.50
2013,07,13,05,08,10.50
2013,07,13,05,09,10.40
2013,07,13,05,10,10.40
2013,07,13,05,11,10.40
2013,07,13,05,12,10.40
2013,07,13,05,13,10.40
2013,07,13,05,14,10.50
2013,07,13,05,15,10.50
2013,07,13,05,16,10.50
2013,07,13,05,17,10.50
2013,07,13,05,18,10.50
2013,07,13,05,19,10.60
2013,07,13,05,20,10.60
2013,07,13,05,21,10.60
2013,07,13,05,22,10.60
2013,07,13,05,23,10.60
2013,07,13,05,24,10.60
2013,07,13,05,25,10.60
2013,07,13,05,26,10.60
2013,07,13,05,27,10.60
2013,07,13,05,28,10.60
2013,07,13,05,29,10.60
2013,07,13,05,30,10.60
2013,07,13,05,31,10.60
2013,07,13,05,32,10.60
2013,07,13,05,33,10.50
2013,07,13,05,34,10.50
2013,07,13,05,35,10.50
2013,07,13,05,36,10.50
2013,07,13,05,37,10.50
2013,07,13,05,38,10.50
2013,07,13,05,39,10.50
2013,07,13,05,40,10.50
2013,07,13,05,41,10.40
2013,07,13,05,42,10.40
2013,07,13,05,43,10.40
2013,07,13,05,44,10.40
2013,07,13,05,45,10.40
2013,07,13,05,46,10.40
2013,07,13,05,47,10.40
2013,07,13,05,48,10.40
2013,07,13,05,49,10.40
2013,07,13,05,50,10.40
2013,07,13,05,51,10.40
2013,07,13,05,52,10.40
2013,07,13,05,53,10.40
2013,07,13,05,54,10.40
2013,07,13,05,55,10.40
2013,07,13,05,56,10.40
2013,07,13,05,57,10.40
2013,07,13,05,58,10.40
2013,07,13,05,59,10.40
2013,07,13,06,00,10.40
2013,07,13,06,01,10.40
2013,07,13,06,02,10.40
2013,07,13,06,03,10.40
2013,07,13,06,04,10.40
2013,07,13,06,05,10.40
2013,07,13,06,06,10.40
2013,07,13,06,07,10.40
2013,07,13,06,08,10.30
2013,07,13,06,09,10.30
2013,07,13,06,10,10.30
2013,07,13,06,11,10.30
2013,07,13,06,12,10.30
2013,07,13,06,13,10.30
2013,07,13,06,14,10.30
2013,07,13,06,15,10.30
2013,07,13,06,16,10.30
2013,07,13,06,17,10.30
2013,07,13,06,18,10.30
2013,07,13,06,19,10.30
2013,07,13,06,20,10.30
2013,07,13,06,21,10.30
2013,07,13,06,22,10.30
2013,07,13,06,23,10.30
2013,07,13,06,24,10.30
2013,07,13,06,25,10.30
2013,07,13,06,26,10.30
2013,07,13,06,27,10.30
2013,07,13,06,28,10.30
2013,07,13,06,29,10.30
2013,07,13,06,30,10.30
2013,07,13,06,31,10.40
2013,07,13,06,32,10.40
2013,07,13,06,33,10.40
2013,07,13,06,34,10.40
2013,07,13,06,35,10.50
2013,07,13,06,36,10.50
2013,07,13,06,37,10.60
2013,07,13,06,38,10.60
2013,07,13,06,39,10.60
2013,07,13,06,40,10.60
2013,07,13,06,41,10.60
2013,07,13,06,42,10.70
2013,07,13,06,43,10.70
2013,07,13,06,44,10.70
2013,07,13,06,45,10.70
2013,07,13,06,46,10.70
2013,07,13,06,47,10.70
2013,07,13,06,48,10.70
2013,07,13,06,49,10.70
2013,07,13,06,50,10.70
2013,07,13,06,51,10.70
2013,07,13,06,52,10.70
2013,07,13,06,53,10.70
2013,07,13,06,54,10.70
2013,07,13,06,55,10.70
2013,07,13,06,56,10.70
2013,07,13,06,57,10.80
2013,07,13,06,58,10.80
2013,07,13,06,59,10.80
2013,07,13,07,00,10.80
2013,07,13,07,01,10.80
2013,07,13,07,02,10.80
2013,07,13,07,03,10.80
2013,07,13,07,04,10.80
2013,07,13,07,05,10.80
2013,07,13,07,06,10.80
2013,07,13,07,07,10.80
2013,07,13,07,08,10.80
2013,07,13,07,09,10.80
2013,07,13,07,10,10.80
2013,07,13,07,11,10.80
2013,07,13,07,12,10.90
2013,07,13,07,13,10.90
2013,07,13,07,14,10.90
2013,07,13,07,15,11.00
2013,07,13,07,16,11.00
2013,07,13,07,17,11.00
2013,07,13,07,18,11.10
2013,07,13,07,19,11.10
2013,07,13,07,20,11.10
2013,07,13,07,21,11.20
2013,07,13,07,22,11.20
2013,07,13,07,23,11.20
2013,07,13,07,24,11.30
2013,07,13,07,25,11.30
2013,07,13,07,26,11.30
2013,07,13,07,27,11.30
2013,07,13,07,28,11.40
2013,07,13,07,29,11.40
2013,07,13,07,30,11.40
2013,07,13,07,31,11.40
2013,07,13,07,32,11.40
2013,07,13,07,33,11.40
2013,07,13,07,34,11.50
2013,07,13,07,35,11.50
2013,07,13,07,36,11.50
2013,07,13,07,37,11.50
2013,07,13,07,38,11.60
2013,07,13,07,39,11.60
2013,07,13,07,40,11.60
2013,07,13,07,41,11.60
2013,07,13,07,42,11.60
2013,07,13,07,43,11.60
2013,07,13,07,44,11.60
2013,07,13,07,45,11.70
2013,07,13,07,46,11.70
2013,07,13,07,47,11.70
2013,07,13,07,48,11.70
2013,07,13,07,49,11.70
2013,07,13,07,50,11.80
2013,07,13,07,51,11.80
2013,07,13,07,52,11.80
2013,07,13,07,53,11.90
2013,07,13,07,54,11.90
2013,07,13,07,55,12.00
2013,07,13,07,56,12.00
2013,07,13,07,57,12.10
2013,07,13,07,58,12.10
2013,07,13,07,59,12.10
2013,07,13,08,00,12.20
2013,07,13,08,01,12.20
2013,07,13,08,02,12.20
2013,07,13,08,03,12.30
2013,07,13,08,04,12.30
2013,07,13,08,05,12.30
2013,07,13,08,06,12.40
2013,07,13,08,07,12.40
2013,07,13,08,08,12.50
2013,07,13,08,09,12.50
2013,07,13,08,10,12.60
2013,07,13,08,11,12.60
2013,07,13,08,12,12.60
2013,07,13,08,13,12.70
2013,07,13,08,14,12.70
2013,07,13,08,15,12.70
2013,07,13,08,16,12.80
2013,07,13,08,17,12.80
2013,07,13,08,18,12.80
2013,07,13,08,19,12.90
2013,07,13,08,20,12.90
2013,07,13,08,21,13.00
2013,07,13,08,22,13.10
2013,07,13,08,23,13.20
2013,07,13,08,24,13.20
2013,07,13,08,25,13.30
2013,07,13,08,26,13.40
2013,07,13,08,27,13.40
2013,07,13,08,28,13.50
2013,07,13,08,29,13.60
2013,07,13,08,30,13.70
2013,07,13,08,31,13.80
2013,07,13,08,32,13.80
2013,07,13,08,33,13.90
2013,07,13,08,34,14.00
2013,07,13,08,35,14.10
2013,07,13,08,36,14.10
2013,07,13,08,37,14.20
2013,07,13,08,38,14.20
2013,07,13,08,39,14.30
2013,07,13,08,40,14.30
2013,07,13,08,41,14.40
2013,07,13,08,42,14.40
2013,07,13,08,43,14.50
2013,07,13,08,44,14.50
2013,07,13,08,45,14.60
2013,07,13,08,46,14.70
2013,07,13,08,47,14.70
2013,07,13,08,48,14.80
2013,07,13,08,49,14.80
2013,07,13,08,50,14.90
2013,07,13,08,51,15.00
2013,07,13,08,52,15.00
2013,07,13,08,53,15.00
2013,07,13,08,54,15.00
2013,07,13,08,55,15.10
2013,07,13,08,56,15.20
2013,07,13,08,57,15.20
2013,07,13,08,58,15.30
2013,07,13,08,59,15.30
2013,07,13,09,00,15.40
2013,07,13,09,01,15.40
2013,07,13,09,02,15.40
2013,07,13,09,03,15.40
2013,07,13,09,04,15.50
2013,07,13,09,05,15.50
2013,07,13,09,06,15.60
2013,07,13,09,07,15.60
2013,07,13,09,08,15.60
2013,07,13,09,09,15.60
2013,07,13,09,10,15.60
2013,07,13,09,11,15.60
2013,07,13,09,12,15.70
2013,07,13,09,13,15.80
2013,07,13,09,14,15.80
2013,07,13,09,15,15.80
2013,07,13,09,16,15.90
2013,07,13,09,17,15.90
2013,07,13,09,18,15.90
2013,07,13,09,19,16.00
2013,07,13,09,20,16.00
2013,07,13,09,21,16.10
2013,07,13,09,22,16.10
2013,07,13,09,23,16.10
2013,07,13,09,24,16.10
2013,07,13,09,25,16.20
2013,07,13,09,26,16.20
2013,07,13,09,27,16.10
2013,07,13,09,28,16.10
2013,07,13,09,29,16.10
2013,07,13,09,30,16.00
2013,07,13,09,31,16.00
2013,07,13,09,32,16.00
2013,07,13,09,33,16.00
2013,07,13,09,34,16.00
2013,07,13,09,35,16.00
2013,07,13,09,36,16.00
2013,07,13,09,37,16.10
2013,07,13,09,38,16.10
2013,07,13,09,39,16.20
2013,07,13,09,40,16.20
2013,07,13,09,41,16.30
2013,07,13,09,42,16.30
2013,07,13,09,43,16.40
2013,07,13,09,44,16.40
2013,07,13,09,45,16.40
2013,07,13,09,46,16.40
2013,07,13,09,47,16.50
2013,07,13,09,48,16.50
2013,07,13,09,49,16.60
2013,07,13,09,50,16.60
2013,07,13,09,51,16.70
2013,07,13,09,52,16.70
2013,07,13,09,53,16.70
2013,07,13,09,54,16.70
2013,07,13,09,55,16.80
2013,07,13,09,56,16.80
2013,07,13,09,57,16.90
2013,07,13,09,58,17.00
2013,07,13,09,59,17.10
2013,07,13,10,00,17.20
2013,07,13,10,01,17.30
2013,07,13,10,02,17.30
2013,07,13,10,03,17.40
2013,07,13,10,04,17.40
2013,07,13,10,05,17.50
2013,07,13,10,06,17.60
2013,07,13,10,07,17.60
2013,07,13,10,08,17.60
2013,07,13,10,09,17.60
2013,07,13,10,10,17.60
2013,07,13,10,11,17.70
2013,07,13,10,12,17.70
2013,07,13,10,13,17.70
2013,07,13,10,14,17.70
2013,07,13,10,15,17.70
2013,07,13,10,16,17.70
2013,07,13,10,17,17.80
2013,07,13,10,18,17.80
2013,07,13,10,19,17.90
2013,07,13,10,20,17.90
2013,07,13,10,21,18.00
2013,07,13,10,22,18.10
2013,07,13,10,23,18.20
2013,07,13,10,24,18.20
2013,07,13,10,25,18.30
2013,07,13,10,26,18.40
2013,07,13,10,27,18.40
2013,07,13,10,28,18.50
2013,07,13,10,29,18.60
2013,07,13,10,30,18.60
2013,07,13,10,31,18.60
2013,07,13,10,32,18.70
2013,07,13,10,33,18.70
2013,07,13,10,34,18.70
2013,07,13,10,35,18.70
2013,07,13,10,36,18.70
2013,07,13,10,37,18.80
2013,07,13,10,38,18.80
2013,07,13,10,39,18.90
2013,07,13,10,40,18.90
2013,07,13,10,41,18.90
2013,07,13,10,42,18.90
2013,07,13,10,43,18.90
2013,07,13,10,44,18.90
2013,07,13,10,45,18.90
2013,07,13,10,46,18.90
2013,07,13,10,47,19.00
2013,07,13,10,48,19.10
2013,07,13,10,49,19.10
2013,07,13,10,50,19.20
2013,07,13,10,51,19.20
2013,07,13,10,52,19.30
2013,07,13,10,53,19.40
2013,07,13,10,54,19.40
2013,07,13,10,55,19.50
2013,07,13,10,56,19.60
2013,07,13,10,57,19.60
2013,07,13,10,58,19.50
2013,07,13,10,59,19.40
2013,07,13,11,00,19.30
2013,07,13,11,01,19.20
2013,07,13,11,02,19.20
2013,07,13,11,03,19.30
2013,07,13,11,04,19.30
2013,07,13,11,05,19.40
2013,07,13,11,06,19.50
2013,07,13,11,07,19.50
2013,07,13,11,08,19.50
2013,07,13,11,09,19.60
2013,07,13,11,10,19.60
2013,07,13,11,11,19.70
2013,07,13,11,12,19.70
2013,07,13,11,13,19.80
2013,07,13,11,14,19.80
2013,07,13,11,15,19.90
2013,07,13,11,16,19.90
2013,07,13,11,17,20.00
2013,07,13,11,18,20.10
2013,07,13,11,19,20.10
2013,07,13,11,20,20.20
2013,07,13,11,21,20.30
2013,07,13,11,22,20.30
2013,07,13,11,23,20.30
2013,07,13,11,24,20.30
2013,07,13,11,25,20.20
2013,07,13,11,26,20.20
2013,07,13,11,27,20.10
2013,07,13,11,28,20.00
2013,07,13,11,29,20.00
2013,07,13,11,30,20.00
2013,07,13,11,31,20.00
2013,07,13,11,32,20.00
2013,07,13,11,33,20.00
2013,07,13,11,34,20.00
2013,07,13,11,35,20.10
2013,07,13,11,36,20.10
2013,07,13,11,37,20.20
2013,07,13,11,38,20.30
2013,07,13,11,39,20.40
2013,07,13,11,40,20.50
2013,07,13,11,41,20.60
2013,07,13,11,42,20.60
2013,07,13,11,43,20.70
2013,07,13,11,44,20.80
2013,07,13,11,45,20.90
2013,07,13,11,46,20.90
2013,07,13,11,47,21.00
2013,07,13,11,48,21.00
2013,07,13,11,49,21.10
2013,07,13,11,50,21.10
2013,07,13,11,51,21.20
2013,07,13,11,52,21.30
2013,07,13,11,53,21.30
2013,07,13,11,54,21.30
2013,07,13,11,55,21.30
2013,07,13,11,56,21.30
2013,07,13,11,57,21.30
2013,07,13,11,58,21.30
2013,07,13,11,59,21.30
2013,07,13,12,00,21.40
2013,07,13,12,01,21.40
2013,07,13,12,02,21.40
2013,07,13,12,03,21.40
2013,07,13,12,04,21.50
2013,07,13,12,05,21.40
2013,07,13,12,06,21.40
2013,07,13,12,07,21.30
2013,07,13,12,08,21.30
2013,07,13,12,09,21.30
2013,07,13,12,10,21.30
2013,07,13,12,11,21.30
2013,07,13,12,12,21.30
2013,07,13,12,13,21.40
2013,07,13,12,14,21.40
2013,07,13,12,15,21.40
2013,07,13,12,16,21.50
2013,07,13,12,17,21.50
2013,07,13,12,18,21.50
2013,07,13,12,19,21.50
2013,07,13,12,20,21.50
2013,07,13,12,21,21.40
2013,07,13,12,22,21.50
2013,07,13,12,23,21.50
2013,07,13,12,24,21.60
2013,07,13,12,25,21.60
2013,07,13,12,26,21.70
2013,07,13,12,27,21.80
2013,07,13,12,28,21.80
2013,07,13,12,29,21.90
2013,07,13,12,30,21.90
2013,07,13,12,31,22.00
2013,07,13,12,32,22.00
2013,07,13,12,33,22.00
2013,07,13,12,34,22.00
2013,07,13,12,35,22.00
2013,07,13,12,36,22.00
2013,07,13,12,37,22.10
2013,07,13,12,38,22.10
2013,07,13,12,39,22.10
2013,07,13,12,40,22.10
2013,07,13,12,41,22.20
2013,07,13,12,42,22.20
2013,07,13,12,43,22.10
2013,07,13,12,44,22.00
2013,07,13,12,45,21.90
2013,07,13,12,46,21.80
2013,07,13,12,47,21.70
2013,07,13,12,48,21.70
2013,07,13,12,49,21.60
2013,07,13,12,50,21.70
2013,07,13,12,51,21.70
2013,07,13,12,52,21.80
2013,07,13,12,53,21.90
2013,07,13,12,54,22.00
2013,07,13,12,55,22.10
2013,07,13,12,56,22.10
2013,07,13,12,57,22.10
2013,07,13,12,58,22.10
2013,07,13,12,59,22.10
2013,07,13,13,00,22.20
2013,07,13,13,01,22.20
2013,07,13,13,02,22.30
2013,07,13,13,03,22.30
2013,07,13,13,04,22.30
2013,07,13,13,05,22.40
2013,07,13,13,06,22.50
2013,07,13,13,07,22.50
2013,07,13,13,08,22.60
2013,07,13,13,09,22.60
2013,07,13,13,10,22.60
2013,07,13,13,11,22.50
2013,07,13,13,12,22.60
2013,07,13,13,13,22.50
2013,07,13,13,14,22.50
2013,07,13,13,15,22.60
2013,07,13,13,16,22.70
2013,07,13,13,17,22.70
2013,07,13,13,18,22.70
2013,07,13,13,19,22.70
2013,07,13,13,20,22.60
2013,07,13,13,21,22.60
2013,07,13,13,22,22.60
2013,07,13,13,23,22.60
2013,07,13,13,24,22.60
2013,07,13,13,25,22.50
2013,07,13,13,26,22.50
2013,07,13,13,27,22.40
2013,07,13,13,28,22.40
2013,07,13,13,29,22.40
2013,07,13,13,30,22.30
2013,07,13,13,31,22.20
2013,07,13,13,32,22.20
2013,07,13,13,33,22.10
2013,07,13,13,34,22.10
2013,07,13,13,35,22.00
2013,07,13,13,36,22.10
2013,07,13,13,37,22.10
2013,07,13,13,38,22.20
2013,07,13,13,39,22.30
2013,07,13,13,40,22.30
2013,07,13,13,41,22.40
2013,07,13,13,42,22.40
2013,07,13,13,43,22.50
2013,07,13,13,44,22.60
2013,07,13,13,45,22.70
2013,07,13,13,46,22.80
2013,07,13,13,47,22.90
2013,07,13,13,48,22.90
2013,07,13,13,49,23.00
2013,07,13,13,50,23.00
2013,07,13,13,51,23.10
2013,07,13,13,52,23.10
2013,07,13,13,53,23.20
2013,07,13,13,54,23.20
2013,07,13,13,55,23.30
2013,07,13,13,56,23.30
2013,07,13,13,57,23.40
2013,07,13,13,58,23.40
2013,07,13,13,59,23.40
2013,07,13,14,00,23.40
2013,07,13,14,01,23.40
2013,07,13,14,02,23.40
2013,07,13,14,03,23.40
2013,07,13,14,04,23.40
2013,07,13,14,05,23.40
2013,07,13,14,06,23.40
2013,07,13,14,07,23.50
2013,07,13,14,08,23.50
2013,07,13,14,09,23.60
2013,07,13,14,10,23.70
2013,07,13,14,11,23.80
2013,07,13,14,12,23.80
2013,07,13,14,13,23.80
2013,07,13,14,14,23.90
2013,07,13,14,15,23.90
2013,07,13,14,16,23.90
2013,07,13,14,17,23.90
2013,07,13,14,18,23.90
2013,07,13,14,19,23.90
2013,07,13,14,20,23.90
2013,07,13,14,21,23.80
2013,07,13,14,22,23.80
2013,07,13,14,23,23.80
2013,07,13,14,24,23.80
2013,07,13,14,25,23.80
2013,07,13,14,26,23.80
2013,07,13,14,27,23.80
2013,07,13,14,28,23.80
2013,07,13,14,29,23.70
2013,07,13,14,30,23.70
2013,07,13,14,31,23.60
2013,07,13,14,32,23.60
2013,07,13,14,33,23.50
2013,07,13,14,34,23.50
2013,07,13,14,35,23.50
2013,07,13,14,36,23.50
2013,07,13,14,37,23.50
2013,07,13,14,38,23.60
2013,07,13,14,39,23.60
2013,07,13,14,40,23.70
2013,07,13,14,41,23.70
2013,07,13,14,42,23.70
2013,07,13,14,43,23.80
2013,07,13,14,44,23.80
2013,07,13,14,45,23.90
2013,07,13,14,46,23.90
2013,07,13,14,47,23.90
2013,07,13,14,48,23.80
2013,07,13,14,49,23.80
2013,07,13,14,50,23.70
2013,07,13,14,51,23.70
2013,07,13,14,52,23.70
2013,07,13,14,53,23.70
2013,07,13,14,54,23.80
2013,07,13,14,55,23.80
2013,07,13,14,56,23.70
2013,07,13,14,57,23.70
2013,07,13,14,58,23.80
2013,07,13,14,59,23.80
2013,07,13,15,00,23.90
2013,07,13,15,01,23.90
2013,07,13,15,02,23.90
2013,07,13,15,03,24.00
2013,07,13,15,04,24.00
2013,07,13,15,05,24.10
2013,07,13,15,06,24.20
2013,07,13,15,07,24.20
2013,07,13,15,08,24.30
2013,07,13,15,09,24.30
2013,07,13,15,10,24.30
2013,07,13,15,11,24.30
2013,07,13,15,12,24.40
2013,07,13,15,13,24.40
2013,07,13,15,14,24.40
2013,07,13,15,15,24.40
2013,07,13,15,16,24.40
2013,07,13,15,17,24.40
2013,07,13,15,18,24.40
2013,07,13,15,19,24.50
2013,07,13,15,20,24.50
2013,07,13,15,21,24.60
2013,07,13,15,22,24.60
2013,07,13,15,23,24.60
2013,07,13,15,24,24.70
2013,07,13,15,25,24.70
2013,07,13,15,26,24.60
2013,07,13,15,27,24.60
2013,07,13,15,28,24.50
2013,07,13,15,29,24.50
2013,07,13,15,30,24.40
2013,07,13,15,31,24.30
2013,07,13,15,32,24.30
2013,07,13,15,33,24.30
2013,07,13,15,34,24.30
2013,07,13,15,35,24.30
2013,07,13,15,36,24.20
2013,07,13,15,37,24.10
2013,07,13,15,38,24.10
2013,07,13,15,39,24.10
2013,07,13,15,40,24.20
2013,07,13,15,41,24.20
2013,07,13,15,42,24.20
2013,07,13,15,43,24.20
2013,07,13,15,44,24.20
2013,07,13,15,45,24.10
2013,07,13,15,46,24.10
2013,07,13,15,47,24.00
2013,07,13,15,48,23.90
2013,07,13,15,49,23.70
2013,07,13,15,50,23.60
2013,07,13,15,51,23.40
2013,07,13,15,52,23.40
2013,07,13,15,53,23.40
2013,07,13,15,54,23.30
2013,07,13,15,55,23.30
2013,07,13,15,56,23.30
2013,07,13,15,57,23.40
2013,07,13,15,58,23.50
2013,07,13,15,59,23.50
2013,07,13,16,00,23.60
2013,07,13,16,01,23.80
2013,07,13,16,02,23.90
2013,07,13,16,03,24.00
2013,07,13,16,04,24.10
2013,07,13,16,05,24.10
2013,07,13,16,06,24.20
2013,07,13,16,07,24.20
2013,07,13,16,08,24.20
2013,07,13,16,09,24.10
2013,07,13,16,10,24.10
2013,07,13,16,11,24.10
2013,07,13,16,12,24.10
2013,07,13,16,13,24.20
2013,07,13,16,14,24.20
2013,07,13,16,15,24.20
2013,07,13,16,16,24.30
2013,07,13,16,17,24.30
2013,07,13,16,18,24.30
2013,07,13,16,19,24.30
2013,07,13,16,20,24.30
2013,07,13,16,21,24.20
2013,07,13,16,22,24.00
2013,07,13,16,23,23.90
2013,07,13,16,24,23.90
2013,07,13,16,25,23.90
2013,07,13,16,26,23.90
2013,07,13,16,27,23.90
2013,07,13,16,28,24.00
2013,07,13,16,29,24.00
2013,07,13,16,30,24.10
2013,07,13,16,31,24.10
2013,07,13,16,32,24.10
2013,07,13,16,33,24.10
2013,07,13,16,34,24.20
2013,07,13,16,35,24.20
2013,07,13,16,36,24.30
2013,07,13,16,37,24.40
2013,07,13,16,38,24.40
2013,07,13,16,39,24.40
2013,07,13,16,40,24.40
2013,07,13,16,41,24.40
2013,07,13,16,42,24.50
2013,07,13,16,43,24.50
2013,07,13,16,44,24.60
2013,07,13,16,45,24.70
2013,07,13,16,46,24.80
2013,07,13,16,47,24.80
2013,07,13,16,48,24.70
2013,07,13,16,49,24.60
2013,07,13,16,50,24.60
2013,07,13,16,51,24.50
2013,07,13,16,52,24.60
2013,07,13,16,53,24.60
2013,07,13,16,54,24.60
2013,07,13,16,55,24.70
2013,07,13,16,56,24.80
2013,07,13,16,57,24.80
2013,07,13,16,58,24.80
2013,07,13,16,59,24.80
2013,07,13,17,00,24.80
2013,07,13,17,01,24.80
2013,07,13,17,02,24.80
2013,07,13,17,03,24.90
2013,07,13,17,04,24.90
2013,07,13,17,05,24.80
2013,07,13,17,06,24.80
2013,07,13,17,07,24.80
2013,07,13,17,08,24.80
2013,07,13,17,09,24.80
2013,07,13,17,10,24.80
2013,07,13,17,11,24.80
2013,07,13,17,12,24.90
2013,07,13,17,13,24.90
2013,07,13,17,14,25.00
2013,07,13,17,15,25.00
2013,07,13,17,16,25.00
2013,07,13,17,17,25.10
2013,07,13,17,18,25.10
2013,07,13,17,19,25.10